CAPE
0 0 0 0 0 0 0 0 0 0 0 0 0 0 0 0 0 23 145 209 29 53 1003 1711 2042 2204 2511 2580 2521 2432 2329 2286 2224 2037 1998 2021 2154 2149 2035 1873 1581 1064 504 79 0 0 0 0 0
0 0 0 0 0 0 0 0 0 0 0 0 0 0 0 0 0 0 0 166 33 207 1157 873 1991 2133 2379 2441 2361 2256 2256 2285 2277 2157 2135 2161 2164 2066 1896 1626 1221 706 202 11 0 0 0 0 0
0 0 0 0 0 0 0 0 0 0 0 0 0 0 0 0 0 44 376 188 127 404 1027 894 2043 2034 2227 2309 2194 2050 2112 2165 2202 2209 2186 2149 1992 1814 1614 1426 1154 463 49 0 0 0 0 0 0
0 0 0 0 0 0 0 0 0 0 0 0 0 0 0 0 0 5 74 340 177 415 642 1984 2033 1972 2065 2104 2069 1968 2001 2018 2026 2129 2077 1938 1742 1475 1277 1146 952 488 0 0 0 0 0 0 0
0 0 0 0 0 0 0 0 0 0 0 0 0 0 0 0 0 206 305 396 206 343 310 2294 2149 1995 2114 2017 1917 1868 1857 1773 1787 1852 1821 1667 1418 1209 1042 944 724 456 281 101 33 36 68 61 4
0 0 0 0 0 0 0 0 0 0 0 0 0 0 0 0 0 197 246 412 219 209 245 1560 2114 2057 2027 2036 1816 1675 1610 1580 1587 1584 1534 1426 1204 1035 869 779 597 531 454 228 128 127 120 129 88
2 0 0 0 0 0 0 0 0 0 0 0 0 0 0 0 0 188 248 275 227 158 208 1358 1756 2135 2104 1977 1839 1697 1591 1497 1472 1415 1366 1284 1154 919 738 612 553 626 556 326 249 225 177 171 72
0 3 0 0 0 0 0 0 0 0 0 0 0 0 0 0 0 159 299 214 218 156 179 784 1199 1659 1522 1344 1914 1811 1697 1576 1494 1456 1436 1319 1144 889 689 502 556 733 687 461 377 326 281 194 165
0 0 3 0 0 0 0 0 0 0 0 0 0 0 0 0 0 49 437 250 305 175 141 392 664 1030 893 507 1297 1780 1720 1671 1585 1526 1527 1015 261 363 267 56 447 746 769 586 533 469 400 259 60
0 0 0 0 1 0 0 0 0 0 0 0 0 0 0 0 0 0 0 371 245 230 161 269 625 722 642 244 752 1194 1136 1163 1112 848 1007 700 254 373 129 162 374 592 793 673 661 645 524 145 0
0 0 0 0 0 0 0 0 0 0 0 0 0 0 0 0 0 0 0 42 107 202 252 291 1170 1924 836 334 540 912 813 840 885 890 1057 916 676 917 672 345 448 167 314 39 114 92 38 0 0
0 0 0 0 0 0 0 0 0 0 0 0 0 0 0 0 0 0 0 0 275 158 142 289 642 1364 1547 621 748 657 572 800 855 983 1436 1226 1225 1075 835 405 299 307 130 96 36 49 59 49 33
0 0 0 0 0 0 0 0 0 0 0 0 0 0 0 0 0 0 0 0 4 324 188 203 426 1232 1566 1457 726 782 646 747 857 815 1336 1174 933 877 742 561 482 279 224 137 183 100 62 84 91
0 0 0 0 0 0 0 0 0 0 0 0 0 0 0 0 0 0 0 0 24 0 361 209 267 759 1492 1733 1542 1084 1394 1203 978 719 877 1363 939 841 590 801 667 403 265 161 134 132 66 63 25
0 0 0 0 0 0 0 0 0 0 0 0 0 0 0 0 0 0 0 0 0 0 96 797 779 683 1491 1833 1470 1109 837 764 708 739 937 1054 1326 1116 1045 593 518 323 549 467 327 229 135 79 27
0 0 0 0 0 0 0 0 0 0 0 0 0 0 0 0 0 0 0 0 0 0 328 970 646 561 1658 1780 1529 844 314 422 341 356 370 1072 1180 1166 1138 465 650 307 311 237 165 154 146 102 112
0 0 0 0 0 0 0 0 0 0 0 0 0 0 0 0 0 0 0 0 0 0 0 576 1699 863 1406 1543 1216 948 1104 463 81 152 72 548 685 671 939 482 262 1244 314 185 189 144 211 306 499
0 0 0 0 0 0 0 0 0 0 0 0 0 0 0 0 0 0 0 0 0 0 0 68 1773 2269 1361 1228 1120 420 282 289 224 236 138 305 650 377 485 202 522 757 397 223 306 792 592 691 876
0 0 0 0 0 0 0 0 0 0 0 0 0 0 0 0 0 0 0 0 0 0 0 0 225 2177 2690 2107 1112 555 214 311 130 155 588 444 357 257 767 301 353 425 655 770 815 1224 1181 1245 1293
0 0 0 0 0 0 0 0 0 0 0 0 0 0 0 0 0 0 0 0 0 0 0 0 0 45 1507 2790 2663 2162 1707 913 330 265 928 804 558 874 589 819 919 1072 918 1153 1626 1665 1477 1604 1815
0 0 0 0 0 0 0 0 0 0 0 0 0 0 0 0 0 0 0 0 0 0 0 0 0 0 0 209 1285 2085 2024 2000 1813 1575 1538 1543 1322 837 1358 1404 1451 2759 2033 1689 2273 2075 1999 1743 1856
0 0 0 0 0 0 0 0 0 0 0 0 0 0 0 0 0 0 0 0 0 0 0 0 0 0 0 0 155 1648 1317 1355 1666 2026 2349 2424 2048 1604 1567 1863 2288 3522 2512 2783 2553 2201 2208 2397 2028
0 0 0 0 0 0 0 0 0 0 0 0 0 0 0 0 0 0 0 0 0 0 0 0 0 0 0 1 66 59 1248 905 962 1604 3037 4177 3858 2553 2085 2413 3114 3542 2691 3042 3067 2466 2460 2062 1946
0 0 0 0 0 0 0 0 0 0 0 0 0 0 0 0 0 0 0 0 0 0 0 0 0 0 0 16 14 148 223 1188 792 1261 1360 1816 2189 2692 2849 2550 2953 3347 3054 3190 2841 2831 2340 2312 2320
0 3 1 0 0 0 0 0 0 0 0 0 0 0 0 0 0 0 0 0 0 0 0 0 0 0 0 0 0 0 123 412 1291 2158 1330 1496 1005 1307 3227 3051 3721 3260 3205 3310 2727 2650 2450 2506 2428
22 28 26 4 0 3 0 0 0 0 0 0 0 0 0 0 0 0 0 0 0 0 0 0 0 0 0 0 0 0 13 91 225 758 543 624 877 1027 3154 2866 2908 3017 2982 2927 2911 2483 2189 2292 2334
28 9 17 17 6 4 0 0 0 0 0 0 0 0 0 0 0 0 0 0 0 0 0 0 0 0 0 0 0 0 0 125 372 1274 1525 1117 1565 1335 2313 2299 2751 2917 3005 2945 2578 1939 2427 2296 2382
20 42 32 24 17 20 6 0 8 0 0 0 0 0 0 0 0 0 0 0 0 0 0 0 0 0 0 0 0 0 0 3 256 940 1742 2373 2458 2348 1686 2272 2589 2780 2508 2250 2517 2283 2747 2469 2707
47 23 23 52 58 44 11 1 2 0 0 0 0 2 0 0 0 0 0 0 0 0 0 0 0 0 0 0 0 0 0 0 57 376 788 1631 2058 1864 1739 2086 2310 2336 2243 2401 2861 2901 2802 2939 2889
13 46 50 80 52 54 34 0 0 0 0 0 0 10 13 3 0 0 0 0 0 0 0 0 0 0 0 0 0 0 0 0 136 304 770 828 1246 1669 1814 1936 1988 1908 1970 2618 2984 3064 2794 2854 2746
CIN
0 0 0 0 0 0 0 0 0 0 0 0 0 0 0 0 0 -1 -123 -132 -208 -244 -349 -366 -272 -181 -111 -90 -77 -69 -81 -84 -81 -80 -78 -60 -40 -28 -21 -14 -24 -66 -141 -255 0 0 0 0 0
0 0 0 0 0 0 0 0 0 0 0 0 0 0 0 0 0 0 0 -223 -265 -263 -340 -383 -286 -212 -127 -109 -109 -114 -106 -103 -90 -86 -83 -50 -48 -43 -48 -52 -90 -133 -220 -195 0 0 0 0 0
0 0 0 0 0 0 0 0 0 0 0 0 0 0 0 0 0 -161 -188 -263 -281 -279 -329 -369 -324 -228 -145 -123 -138 -155 -132 -126 -114 -108 -93 -80 -82 -86 -107 -104 -116 -207 -294 0 0 0 0 0 0
0 0 0 0 0 0 0 0 0 0 0 0 0 0 0 0 0 -119 -266 -277 -271 -299 -281 -365 -380 -289 -188 -132 -163 -182 -172 -155 -148 -132 -128 -126 -140 -152 -168 -161 -161 -217 0 0 0 0 0 0 0
0 0 0 0 0 0 0 0 0 0 0 0 0 0 0 0 0 -287 -305 -273 -277 -306 -303 -317 -367 -324 -217 -153 -149 -192 -199 -207 -188 -181 -181 -183 -203 -214 -217 -216 -220 -247 -252 -311 -368 -370 -319 -318 -92
0 0 0 0 0 0 0 0 0 0 0 0 0 0 0 0 0 -326 -335 -265 -289 -292 -309 -321 -327 -331 -269 -184 -186 -200 -229 -231 -234 -236 -236 -232 -236 -244 -250 -257 -263 -251 -245 -296 -310 -297 -294 -261 -303
-37 0 0 0 0 0 0 0 0 0 0 0 0 0 0 0 0 -317 -384 -290 -269 -283 -287 -280 -302 -271 -259 -218 -181 -171 -196 -223 -234 -239 -248 -234 -227 -248 -277 -289 -281 -247 -236 -284 -294 -270 -282 -270 -325
0 0 0 0 0 0 0 0 0 0 0 0 0 0 0 0 0 -290 -334 -317 -238 -258 -288 -237 -276 -262 -272 -262 -175 -166 -152 -179 -195 -201 -199 -207 -216 -239 -276 -314 -300 -255 -242 -260 -242 -233 -237 -252 -275
0 0 0 0 0 0 0 0 0 0 0 0 0 0 0 0 0 -230 -255 -339 -264 -259 -278 -212 -261 -253 -239 -257 -223 -155 -161 -155 -159 -160 -157 -239 -293 -291 -330 -413 -330 -264 -243 -266 -242 -233 -225 -243 -347
0 0 0 0 0 0 0 0 0 0 0 0 0 0 0 0 0 0 0 -211 -307 -279 -264 -247 -237 -248 -221 -235 -218 -207 -186 -184 -189 -224 -211 -227 -268 -241 -298 -329 -352 -292 -244 -240 -237 -210 -217 -323 0
0 0 0 0 0 0 0 0 0 0 0 0 0 0 0 0 0 0 0 -241 -275 -327 -276 -230 -240 -183 -193 -186 -203 -200 -200 -207 -214 -218 -203 -219 -221 -194 -224 -230 -259 -338 -344 -369 -378 -388 -393 0 0
0 0 0 0 0 0 0 0 0 0 0 0 0 0 0 0 0 0 0 0 -181 -256 -268 -274 -236 -218 -161 -160 -194 -207 -202 -222 -208 -202 -184 -189 -190 -216 -206 -214 -210 -266 -268 -300 -298 -276 -312 -314 -303
0 0 0 0 0 0 0 0 0 0 0 0 0 0 0 0 0 0 0 0 -391 -182 -217 -263 -285 -219 -174 -183 -186 -192 -225 -212 -200 -202 -211 -210 -217 -241 -211 -203 -193 -194 -196 -227 -242 -281 -291 -278 -279
0 0 0 0 0 0 0 0 0 0 0 0 0 0 0 0 0 0 0 0 -364 -177 -177 -202 -271 -332 -240 -172 -190 -251 -196 -216 -207 -204 -224 -243 -233 -234 -195 -206 -203 -214 -217 -220 -259 -280 -292 -291 -307
0 0 0 0 0 0 0 0 0 0 0 0 0 0 0 0 0 0 0 0 0 0 -301 -122 -146 -201 -252 -201 -266 -284 -257 -215 -237 -242 -253 -238 -225 -222 -235 -227 -228 -196 -199 -246 -304 -335 -317 -309 -295
0 0 0 0 0 0 0 0 0 0 0 0 0 0 0 0 0 0 0 0 0 0 -261 -88 -155 -197 -150 -137 -244 -260 -252 -267 -330 -313 -237 -272 -287 -265 -252 -262 -310 -255 -239 -257 -358 -295 -285 -280 -220
0 0 0 0 0 0 0 0 0 0 0 0 0 0 0 0 0 0 0 0 0 0 0 -114 -121 -169 -126 -157 -230 -226 -213 -268 -220 -257 -236 -264 -342 -339 -344 -387 -394 -277 -319 -286 -306 -291 -275 -199 -175
0 0 0 0 0 0 0 0 0 0 0 0 0 0 0 0 0 0 0 0 0 0 0 -420 -174 -107 -136 -107 -152 -350 -302 -316 -351 -369 -298 -292 -402 -406 -478 -466 -445 -375 -381 -345 -287 -227 -206 -184 -115
0 0 0 0 0 0 0 0 0 0 0 0 0 0 0 0 0 0 0 0 0 0 0 0 -302 -140 -31 -54 -114 -290 -354 -305 -249 -284 -300 -369 -429 -464 -432 -500 -497 -491 -363 -335 -267 -209 -217 -129 -130
0 0 0 0 0 0 0 0 0 0 0 0 0 0 0 0 0 0 0 0 0 0 0 0 0 -315 -76 0 -31 -88 -156 -164 -192 -196 -213 -330 -418 -415 -472 -325 -252 -324 -233 -287 -182 -221 -131 -114 -64
0 0 0 0 0 0 0 0 0 0 0 0 0 0 0 0 0 0 0 0 0 0 0 0 0 0 0 -320 -81 -101 -129 -117 -130 -156 -180 -315 -356 -425 -331 -265 -221 -112 -151 -115 -159 -202 -154 -58 -64
0 0 0 0 0 0 0 0 0 0 0 0 0 0 0 0 0 0 0 0 0 0 0 0 0 0 0 0 -322 -157 -139 -103 -97 -129 -120 -169 -264 -276 -243 -218 -154 -67 -106 -101 -138 -180 -129 -89 -32
0 0 0 0 0 0 0 0 0 0 0 0 0 0 0 0 0 0 0 0 0 0 0 0 0 0 0 -51 -414 -380 -154 -111 -17 -71 -46 -12 -47 -179 -182 -163 -102 -74 -142 -89 -64 -146 -117 -99 -84
0 0 0 0 0 0 0 0 0 0 0 0 0 0 0 0 0 0 0 0 0 0 0 0 0 0 0 -319 -432 -385 -330 -125 -86 -89 -80 -91 -84 -119 -151 -144 -109 -92 -116 -73 -104 -74 -109 -106 -70
0 0 0 0 0 0 0 0 0 0 0 0 0 0 0 0 0 0 0 0 0 0 0 0 0 0 0 0 0 0 -362 -284 -186 -107 -98 -103 -110 -116 -109 -138 -58 -88 -112 -85 -111 -82 -88 -99 -59
0 0 0 0 0 0 0 0 0 0 0 0 0 0 0 0 0 0 0 0 0 0 0 0 0 0 0 0 0 0 -439 -333 -308 -241 -180 -126 -133 -134 -107 -149 -127 -106 -93 -117 -81 -76 -113 -95 -57
0 0 -1 0 0 0 0 0 0 0 0 0 0 0 0 0 0 0 0 0 0 0 0 0 0 0 0 0 0 0 0 -267 -233 -173 -244 -267 -250 -236 -166 -169 -168 -119 -83 -73 -86 -89 -105 -77 -37
-1 0 0 0 0 0 0 0 0 0 0 0 0 0 0 0 0 0 0 0 0 0 0 0 0 0 0 0 0 0 0 -20 -198 -175 -144 -116 -113 -146 -121 -171 -165 -126 -98 -102 -84 -80 -50 -50 -6
0 0 0 0 0 0 0 0 -2 0 0 0 0 0 0 0 0 0 0 0 0 0 0 0 0 0 0 0 0 0 0 0 -210 -171 -177 -147 -139 -178 -180 -153 -147 -121 -105 -91 -62 -35 -14 -10 0
0 0 0 0 0 0 0 0 0 0 0 0 0 0 0 0 0 0 0 0 0 0 0 0 0 0 0 0 0 0 0 0 -165 -155 -155 -169 -172 -160 -153 -135 -115 -104 -98 -62 -41 -18 0 0 0
Wind_Speed
11 3 4 6 8 7 13 5 2 6 8 1 2 6 7 13 6 3 5 4 12 19 21 23 19 16 16 17 18 17 17 17 17 17 17 17 16 16 14 13 11 11 12 12 11 11 10 10 10
6 5 5 3 8 10 9 3 8 2 5 6 8 7 11 13 5 10 7 3 12 19 19 23 19 17 16 16 17 17 17 18 18 17 17 16 15 15 15 13 13 12 12 11 11 11 10 10 10
6 5 5 4 8 9 8 1 4 5 5 1 3 3 7 4 10 13 5 3 12 17 19 20 22 17 16 16 16 17 17 17 18 18 18 17 16 15 15 13 13 13 12 12 11 11 10 10 10
5 5 4 9 10 4 9 6 4 3 2 3 3 7 2 3 13 18 15 8 15 18 20 22 24 20 16 15 16 17 17 17 17 17 18 17 17 15 15 14 13 12 12 12 11 10 10 11 10
6 4 9 10 8 4 9 9 10 11 8 8 1 4 9 3 16 16 12 10 18 20 19 22 23 22 18 16 14 15 16 16 16 17 17 17 17 16 15 14 13 12 11 12 12 11 10 9 10
8 6 10 13 13 10 9 8 8 6 5 6 7 8 2 10 19 16 11 10 17 21 20 20 21 21 19 16 15 14 14 15 16 16 17 16 15 15 15 14 13 12 11 11 11 10 9 8 9
15 11 16 17 14 13 11 11 10 9 6 6 7 8 3 14 17 13 9 7 15 20 19 19 21 19 18 16 13 11 11 12 12 12 13 13 13 13 13 12 11 11 10 10 10 9 8 8 8
10 12 21 18 17 19 11 10 12 9 10 6 3 4 11 12 12 11 6 6 14 18 19 20 20 20 19 18 13 12 9 9 8 9 9 10 10 9 10 9 10 11 10 9 9 9 8 8 7
12 13 17 23 21 15 8 12 9 4 7 10 7 8 11 11 15 9 2 6 12 15 17 18 18 18 18 19 16 11 12 9 8 9 8 9 11 12 13 11 12 10 10 10 10 10 9 8 8
14 16 25 20 18 13 15 17 9 7 14 15 13 13 8 13 16 12 10 7 12 15 18 15 16 17 17 14 16 16 14 13 12 13 13 11 11 9 9 9 7 10 9 9 10 10 9 9 9
13 21 18 13 12 17 17 18 9 11 16 18 16 11 16 18 14 10 10 12 16 15 14 16 11 13 17 14 12 10 9 10 11 15 13 12 9 7 8 6 7 9 11 9 11 10 9 11 9
12 14 18 11 11 9 16 16 12 14 16 13 13 11 15 15 12 11 6 6 10 15 17 16 16 14 14 12 11 12 11 11 10 13 14 10 8 8 8 7 8 8 7 9 9 7 8 10 11
16 11 9 14 13 15 14 16 17 18 10 12 17 11 11 13 9 9 3 4 6 7 15 17 16 15 15 14 12 11 11 11 11 11 13 11 10 9 9 8 8 7 7 7 8 7 7 9 11
1 11 12 13 15 14 16 18 16 17 7 9 13 12 14 14 12 13 9 4 5 6 10 16 17 13 14 14 12 11 9 8 10 10 10 13 10 9 9 9 8 7 7 7 7 8 7 8 10
7 12 16 16 17 15 10 18 23 16 10 17 18 12 10 8 9 8 6 6 6 7 9 11 15 17 16 17 13 11 10 11 11 10 13 13 13 11 10 8 8 8 8 8 7 7 8 8 9
11 8 13 9 7 9 9 15 4 3 5 4 7 8 9 8 6 3 2 3 4 6 7 8 9 15 17 16 13 12 11 12 11 9 10 13 14 14 11 9 7 8 7 7 8 9 8 9 8
9 11 8 6 6 2 10 10 6 5 8 8 7 6 8 7 7 2 4 4 5 7 6 9 10 10 10 15 13 13 13 12 12 11 11 13 16 15 11 9 8 7 8 8 8 8 8 8 8
7 9 8 9 7 9 12 14 12 13 13 12 12 11 9 9 6 4 5 5 5 5 6 5 3 7 3 10 11 9 10 11 10 9 10 11 9 12 10 9 5 8 8 7 9 9 8 8 8
5 7 9 5 5 10 13 15 16 16 17 17 15 14 14 10 8 6 7 6 3 4 4 4 6 5 8 10 14 12 11 10 13 11 13 13 13 12 11 11 7 9 11 7 10 9 9 9 8
8 10 11 7 6 10 14 18 20 19 18 19 18 17 16 13 11 9 6 6 4 4 5 4 2 6 9 13 8 8 9 11 10 11 11 13 12 12 13 13 9 12 11 10 13 11 8 9 8
10 10 8 9 11 16 13 22 13 8 8 11 12 13 10 11 11 11 8 7 7 6 6 7 5 5 6 11 9 8 7 6 8 12 11 12 16 16 16 15 12 13 12 11 13 11 13 9 8
12 5 7 9 11 10 3 7 7 11 7 8 7 8 8 9 10 11 11 11 9 7 6 7 9 5 6 7 9 11 8 10 11 10 9 11 16 17 16 14 16 14 12 12 12 11 12 11 8
11 2 9 11 13 16 15 9 4 2 9 6 3 3 6 6 6 8 7 6 6 7 9 8 7 7 7 8 9 9 12 9 14 11 13 11 11 14 15 17 16 14 12 12 11 12 13 10 9
2 11 14 16 10 13 10 8 7 6 7 6 5 6 5 7 5 3 3 3 6 6 7 9 9 8 7 10 9 10 13 13 12 12 11 11 10 11 15 16 15 14 13 13 11 11 13 11 10
11 11 9 9 11 7 5 8 10 2 4 8 12 10 8 4 4 6 6 5 6 10 10 9 10 11 11 10 8 10 12 14 15 14 12 13 11 11 11 14 13 12 14 12 12 13 12 12 10
9 9 9 9 8 7 5 8 4 6 4 8 11 10 8 7 6 7 7 8 9 9 11 13 14 14 14 13 13 10 12 10 11 14 14 12 12 10 9 13 14 14 14 13 13 11 10 10 9
7 10 6 12 16 15 12 14 12 15 7 6 5 3 7 8 8 9 11 12 13 13 13 14 15 16 15 15 13 12 12 13 12 12 11 10 9 8 10 13 13 14 14 14 13 10 10 9 10
14 10 7 9 9 14 10 12 10 14 2 4 4 6 6 6 10 13 15 17 16 15 16 14 14 15 16 16 14 13 13 13 14 12 13 13 11 12 11 12 14 14 15 14 13 9 10 10 9
8 12 11 10 7 7 10 5 7 4 6 5 8 5 8 12 17 19 19 19 17 17 18 17 15 14 13 14 14 15 15 16 14 12 13 13 12 12 13 13 15 15 15 14 13 11 12 13 11
13 15 14 8 10 11 12 21 9 8 6 6 10 15 16 15 16 18 18 19 19 19 18 13 14 14 14 14 16 16 16 16 15 15 15 13 13 13 14 15 15 16 15 14 14 13 13 13 12
Wind_Direction
275 293 266 238 238 240 241 186 283 164 179 235 297 292 301 318 278 29 62 156 153 157 156 165 159 166 168 162 158 157 155 152 151 153 151 152 151 147 145 144 140 144 145 144 140 138 138 137 129
301 270 232 257 254 228 223 210 204 234 35 317 262 249 247 256 313 313 320 87 158 155 161 166 163 167 172 167 161 160 159 155 153 154 152 155 152 148 144 147 149 153 151 151 149 146 144 138 133
246 257 263 259 243 246 304 117 301 120 355 62 260 264 306 352 21 322 44 327 186 167 166 163 160 170 174 173 168 164 162 159 157 156 155 157 154 152 150 154 159 162 162 159 152 148 147 146 145
206 191 203 245 241 183 259 331 29 230 342 197 337 268 264 62 349 323 300 257 194 177 174 150 161 169 177 182 173 168 165 164 162 160 159 159 158 158 157 160 164 165 164 160 158 157 159 154 154
215 252 252 243 248 278 251 270 288 279 286 259 353 298 301 39 357 342 314 220 191 180 179 161 166 169 175 181 184 176 170 168 169 167 163 164 163 162 164 165 169 168 170 165 164 168 164 163 159
221 275 240 241 228 220 233 261 269 280 288 246 242 310 333 1 0 348 326 221 195 178 176 166 175 171 175 180 183 186 179 176 175 171 170 169 168 168 170 168 170 172 176 172 170 172 172 174 166
241 224 249 254 248 231 231 219 251 263 272 234 339 297 360 3 3 355 329 237 199 178 175 169 178 176 175 179 181 186 186 181 180 178 172 169 171 175 171 172 173 176 182 177 175 178 182 185 179
240 246 249 243 247 241 235 220 231 236 272 348 255 315 332 347 360 348 347 241 193 183 180 173 179 180 184 182 178 179 184 182 181 175 168 167 169 176 175 174 182 184 184 183 181 186 190 198 195
226 237 240 236 235 247 228 222 206 214 249 277 286 295 323 331 334 335 21 227 199 185 187 178 180 182 189 184 177 177 178 175 170 168 166 164 194 186 179 201 170 196 190 187 186 191 194 202 217
218 227 241 247 246 245 236 212 212 257 243 256 272 281 288 315 323 324 328 199 209 193 190 182 185 184 192 189 179 194 196 196 197 195 189 208 207 199 213 194 189 198 199 201 191 197 196 207 232
222 245 244 251 279 270 267 251 239 238 253 257 280 306 306 308 305 312 319 331 192 206 196 196 182 189 197 199 182 185 196 198 199 202 198 205 201 205 207 208 203 222 202 218 200 203 225 225 237
249 237 262 242 231 261 260 265 257 247 247 301 290 295 302 300 307 314 326 313 304 193 212 205 194 195 207 195 191 187 192 197 201 202 201 203 206 200 221 211 211 207 220 219 228 215 233 234 238
238 232 232 247 252 244 262 258 261 264 262 281 278 266 283 293 295 296 333 237 299 250 217 206 212 197 203 216 194 202 201 195 202 201 200 212 209 205 218 221 225 222 228 219 237 233 227 237 246
240 259 243 245 253 250 252 263 256 256 223 249 261 267 287 290 283 286 285 274 264 287 257 215 203 201 202 212 202 200 205 197 209 208 205 213 219 210 223 216 218 225 231 242 237 229 232 231 251
245 251 236 238 246 247 267 261 248 262 280 256 261 263 272 287 286 273 305 282 266 271 278 230 212 202 201 206 202 203 199 211 204 212 212 212 215 223 229 225 219 223 218 226 231 248 235 247 249
237 242 240 172 224 204 223 259 120 165 276 247 307 315 267 248 269 277 302 287 294 246 244 226 218 209 212 213 196 210 209 203 208 219 217 214 211 222 218 216 217 239 242 230 215 219 232 239 242
199 258 222 159 200 224 230 254 164 229 275 281 266 266 276 256 249 270 321 334 329 317 281 206 198 216 209 231 216 208 206 209 214 208 217 213 217 210 211 211 210 217 224 216 233 222 232 239 242
207 233 206 256 167 247 250 248 248 254 263 267 269 266 252 265 262 296 310 324 329 332 342 328 303 183 184 240 231 214 212 217 225 217 228 220 215 207 206 229 202 197 239 197 226 224 210 238 248
271 260 262 247 290 279 272 274 270 260 256 254 251 259 266 263 262 262 291 302 310 356 344 8 322 1 216 232 222 201 212 218 219 223 220 210 212 217 200 214 194 208 234 187 216 209 215 225 229
247 256 257 280 271 288 276 279 277 263 256 251 251 246 251 259 253 257 259 287 326 329 345 312 147 198 219 231 224 216 198 216 227 230 222 223 216 196 213 219 196 215 229 199 221 201 210 223 210
235 269 288 286 313 274 279 269 245 223 237 243 245 255 246 251 268 264 282 313 318 339 343 310 314 301 277 266 238 221 227 230 217 223 221 210 208 206 212 214 212 211 217 207 213 196 211 218 199
267 185 270 278 285 288 347 291 258 231 237 205 240 254 254 256 242 248 271 299 312 322 318 318 315 322 288 287 255 253 224 226 231 226 217 205 210 216 217 221 220 224 215 224 200 194 212 227 210
272 287 269 285 278 284 257 240 250 159 221 234 173 258 264 251 265 290 267 292 301 313 323 316 313 324 302 281 269 264 242 233 243 228 221 217 192 212 219 217 221 220 219 215 220 197 206 201 227
291 257 262 255 259 247 232 250 266 182 223 169 284 287 285 286 279 219 193 286 305 303 311 317 315 290 268 257 258 246 265 249 247 226 230 225 220 205 219 218 219 216 216 218 206 207 205 217 208
234 255 269 235 201 253 115 266 253 177 231 289 305 305 298 331 254 233 250 285 316 316 312 306 302 294 280 270 263 259 253 256 254 249 228 235 223 218 203 212 216 215 212 203 202 206 206 203 211
217 277 286 288 274 297 232 251 98 99 314 277 284 275 272 252 235 254 264 272 287 298 306 304 301 299 299 289 280 269 254 251 245 245 245 235 228 226 196 199 216 218 211 204 200 201 208 198 208
218 232 299 287 271 266 257 260 238 214 213 257 286 292 236 258 278 279 293 293 301 302 293 295 296 292 293 284 273 270 266 254 258 246 228 239 237 220 206 202 204 207 208 203 194 212 194 196 203
251 296 225 212 266 256 248 266 271 177 258 302 303 295 298 298 284 295 305 304 301 299 295 286 284 284 290 286 277 271 268 260 253 250 248 244 237 215 214 198 195 195 200 199 198 190 187 188 193
184 224 226 290 243 258 283 272 62 314 297 283 305 304 314 295 294 298 297 294 288 284 288 288 275 267 277 284 275 271 271 268 261 252 247 235 233 219 213 201 192 192 195 195 194 196 175 189 192
272 274 217 226 238 245 277 272 341 305 286 312 277 297 302 300 297 296 293 290 289 281 281 278 278 272 276 276 273 269 266 266 258 251 246 235 225 220 210 206 197 194 193 190 190 188 181 193 195